Regional Weather Roundup
Issued by NWS

Home | Current Version | Previous Version | Text Only | Print | Product List | Glossary On
Versions: 1 2 3 4 5 6 7 8 9 10 11 12 13 14 15 16 17 18 19 20 21 22 23 24 25 26 27 28 29 30 31 32 33 34 35 36 37 38 39 40 41 42 43 44 45 46 47 48 49 50
000
ASUS46 KLOX 030213
RWRCA

SOUTHERN CALIFORNIA WEATHER ROUNDUP
NATIONAL WEATHER SERVICE OXNARD CALIFORNIA
700 PM PDT SUN AUG 02 2015

NOTE: "FAIR" INDICATES FEW OR NO CLOUDS BELOW 12,000 FEET WITH NO
SIGNIFICANT WEATHER AND/OR OBSTRUCTIONS TO VISIBILITY.

  -  STATIONS PRECEEDED BY AN ASTERISK (*) ARE NOT NWS OR FAA
     STATIONS AND ARE NOT SUBJECT TO NWS AND FAA QUALITY CONTROL.

CAZ041-042-087-030300-
LA AND ORANGE COUNTY COASTAL AREAS


CITY           SKY/WX    TMP DP  RH WIND       PRES   REMARKS
L.A. DOWNTOWN  PTCLDY    75  63  66 CALM      29.82F
L.A. AIRPORT   PTCLDY    72  62  71 SW14      29.83F
LONG BEACH     CLEAR     78  63  59 W9        29.82S

CITY           SKY/WX    TMP DP  RH WIND       PRES   REMARKS
AVALON           N/A     73 N/A N/A MISG        N/A
FULLERTON      CLEAR     79  65  62 S5        29.81S
*GETTY CENTER    N/A     72  63  73 S5          N/A
HAWTHORNE      PTCLDY    75  62  64 W8        29.83S
*LOS ALAMITOS  FAIR      77  66  67 S5        29.81F
*REDONDO BEACH   N/A     73  65  75 W1        29.84S
SANTA ANA      PTCLDY    75  65  70 SW5       29.82F
STA MONICA APT PTCLDY    72  62  71 SW8       29.83F
*STA MON PIER    N/A     71  65  83 CALM      29.82S
TORRANCE       PTCLDY    73  66  78 W12       29.84S

$$

CAZ547-548-048-030300-
LA COUNTY VALLEYS AND INLAND EMPIRE


CITY           SKY/WX    TMP DP  RH WIND       PRES   REMARKS
BURBANK        PTCLDY    81  63  54 SE7       29.82F
VAN NUYS       PTCLDY    84  63  49 E7        29.81F

CITY           SKY/WX    TMP DP  RH WIND       PRES   REMARKS
CORONA AIRPORT CLEAR     82  63  52 W12       29.81S
CHINO          PTCLDY    82  63  52 SW14      29.83S
MARCH AFB      CLEAR     85  60  43 NW13      29.85S
*NORTHRIDGE      N/A     84  59  42 E3          N/A
ONTARIO        PTCLDY    84  62  47 W10       29.82F
*PASADENA        N/A     81  66  61 CALM        N/A
POMONA         CLEAR     82  63  51 W14       29.86F
RIVERSIDE      CLEAR     84  62  47 W7        29.82S
SAN BERNARDINO PTCLDY    86  57  37 W13       29.83R
*WHITEMAN AP   NOT AVBL
*WOODLAND HILL   N/A     88  54  31 SW5         N/A

$$

CAZ054-055-030300-
LA AND SAN BERNARDINO COUNTY MOUNTAINS


CITY           SKY/WX    TMP DP  RH WIND       PRES   REMARKS
*BIG BEAR AIRP CLEAR     70  34  26 W10G16    30.21S
SANDBERG       MOSUNNY   82  42  24 S14       30.06S

$$

CAZ028-029-059-060-099-030300-
ANTELOPE VALLEY AND SURROUNDING AREAS


CITY           SKY/WX    TMP DP  RH WIND       PRES   REMARKS
LANCASTER      PTCLDY    89  49  25 W20       29.87R
PALMDALE       PTCLDY    87  51  28 W18       29.87R

CITY           SKY/WX    TMP DP  RH WIND       PRES   REMARKS
29 PALMS       CLEAR     99  45  15 SW14      29.85S HX  95
BARSTOW/DAGGET CLEAR    101  37  11 SW18G24   29.77F HX  95
BISHOP         SUNNY     94  37  13 SW5       29.90F
CHINA LAKE     CLEAR     99  39  12 SW20G28   29.79S HX  94
EDWARDS AFB    CLEAR     94  37  13 SW23      29.82S HX  90
MOJAVE         CLEAR     91  46  21 W14       29.89S
NEEDLES        CLEAR    108  42  10 SW10      29.68S HX 102
VICTORVILLE    CLEAR     93  34  12 S16       29.88S

$$

CAZ039-040-030300-
VENTURA AND SANTA BARBARA COUNTY COAST


CITY           SKY/WX    TMP DP  RH WIND       PRES   REMARKS
CAMARILLO      SUNNY     76  61  59 SW7       29.83S
OXNARD AIRPORT SUNNY     73  62  68 W12       29.83S
*POINT MUGU    MOSUNNY   73  63  70 W8        29.83F
SBA APT/GOLETA MOSUNNY   77  62  59 S6        29.80F
*SANTA BARBARA   N/A     80  62  54 CALM      29.88F
*VENTURA         N/A     75  60  59 SW3       29.44S

$$

CAZ044-045-030300-
VENTURA COUNTY VALLEYS


CITY           SKY/WX    TMP DP  RH WIND       PRES   REMARKS
*SIMI VALLEY     N/A     78  63  58 CALM      29.79R
*OJAI            N/A     83  64  51 CALM      29.75S
*FILLMORE        N/A     81  64  57 CALM      29.74R

$$

CAZ053-030300-
VENTURA COUNTY MOUNTAINS


CITY           SKY/WX    TMP DP  RH WIND       PRES   REMARKS

$$

CAZ034-035-036-030300-
CENTRAL COAST AND SANTA YNEZ VALLEY


CITY           SKY/WX    TMP DP  RH WIND       PRES   REMARKS
SAN LUIS OBISP MOSUNNY   69  57  65 NW16      29.90S
SANTA MARIA    MOSUNNY   69  58  67 NW15      29.90F

CITY           SKY/WX    TMP DP  RH WIND       PRES   REMARKS
*CAL POLY SLO    N/A     70  59  68 NW9         N/A
*LOMPOC        SUNNY     70  55  60 W14       29.92S
*PISMO BEACH     N/A     68  61  78 W3        29.90R
*SANTA YNEZ    FAIR      73  54  49 W12       29.89S

$$

CAZ037-038-051-030300-
SAN LUIS OBISPO COUNTY INTERIOR AND CUYAMA VALLEY


CITY           SKY/WX    TMP DP  RH WIND       PRES   REMARKS
*CUYAMA          N/A     82  55  38 W14       29.76R
PASO ROBLES    MOSUNNY   84  50  30 W10       29.84R

$$

CAZ032-033-061-030300-
SOUTHERN DESERTS


CITY           SKY/WX    TMP DP  RH WIND       PRES   REMARKS
BLYTHE         PTCLDY   108  53  16 S6        29.64F HX 106
IMPERIAL       CLEAR    109  44  11 CALM      29.61F HX 104
PALM SPRINGS   CLEAR    106  55  18 NW18      29.68R HX 105
THERMAL        CLEAR    106  50  15 S6        29.60S HX 103

$$

ELSEWHERE ACROSS THE WESTERN UNITED STATES AND MEXICO


CITY           SKY/WX    TMP DP  RH WIND       PRES   REMARKS
DENVER, CO     CLOUDY    75  45  34 SW7       30.08R
GRAND CANYON,  CLEAR     73  53  49 CALM      30.18S
HONOLULU, HI   MOSUNNY   88  66  48 NE22G29   29.85F HX  90
KAHULUI, MAUI  MOSUNNY   88  66  48 NE20      29.87F HX  90
LAKE TAHOE, CA CLOUDY    72  55  55 N5        30.15S
LAS VEGAS, NV  PTCLDY   102  44  14 N3        29.74S HX  98
MAMMOTH LAKES, FAIR      75  37  25 W12       30.19F
MEXICO CITY, M PTCLDY    68  52  56 NW12      30.23S
PHOENIX, AZ    PTCLDY   106  45  12 W12       29.69S HX 101
PORTLAND, OR   CLOUDY    79  57  46 CALM      29.87F
RENO, NV       PTSUNNY   82  48  30 N8        30.03S
SALT LAKE CITY CLOUDY    81  48  31 SE18G24   29.95S
SAN DIEGO, CA  PTCLDY    73  63  70 NW6       29.86S
SAN FRANCISCO, MOSUNNY   67  55  65 W16G24    29.91F
SAN JOSE, CA   MOSUNNY   71  56  58 NW15G21   29.90S
SEATTLE, WA    CLOUDY    84  47  27 S3        29.90F
TIJUANA, MEX   CLEAR     73  61  64 NW9       29.87

$$

STATION/POSITION TIME  TEMP    WIND        PRES    VSBY  WAVE
                       AIR SEA DIR/SP/G                  HT/PER
                 (UTC) (F)     (DEG/KT/KT) (MB)    (MI)  (FT/S)
POINT ARGUELLO B NOT AVBL
WEST SANTA BARBA 0150   63 64  310/ 21/ 25 1010.5F         4/ 6
POINT CONCEPTION NOT AVBL
EAST SANTA BARBA 0200   68 69  260/ 17/ 19 1009.8F
SANTA MONICA BAY 0150   71 73  260/ 10/ 12 1010.0F         3/ 6



USA.gov is the U.S. government's official web portal to all federal, state and local government web resources and services.